Regional Weather Roundup
Issued by NWS Goodland, KS

Home | Current Version | Previous Version | Text Only | Print | Product List | Glossary Off
Versions: 1 2 3 4 5 6 7 8 9 10 11 12 13 14 15 16 17 18 19 20 21 22 23 24 25 26 27 28 29 30 31 32 33 34 35 36 37 38 39 40 41 42 43 44 45 46 47 48 49 50

152
ASUS43 KGLD 220059
RWRGLD

GOODLAND FORECAST AREA HOURLY WEATHER ROUNDUP
NATIONAL WEATHER SERVICE GOODLAND KS
700 PM MDT FRI JUL 21 2017

...OFFICIAL OBSERVATIONS...

CITY           SKY/WX    TMP DP  RH WIND       PRES   REMARKS
GOODLAND KS    SUNNY     94  51  23 SE8       29.89S
HILL CITY KS   SUNNY    101  56  22 S8        29.79S HX 100
IMPERIAL NEB   MOSUNNY   98  51  20 N9        29.87S
MCCOOK NEB     SUNNY     96  64  34 SW6       29.80S
AKRON CO       CLOUDY    76  55  48 NE23G35   29.99S
BURLINGTON CO  SUNNY     93  55  27 SE7       29.94S
LIMON CO       PTSUNNY   79  65  62 CALM      30.04S
$$

...UNOFFICIAL OBSERVATIONS...

CITY           SKY/WX    TMP DP  RH WIND       PRES   REMARKS
LENORA KS        N/A     96  32  10 MISG        N/A
NORTON KS      SUNNY     99  52  20 S5        29.78F
SHARON SPRINGS   N/A     99  64  31 CALM        N/A  HX 101
TRENTON NEB      N/A    103  32   8 CALM        N/A
KIT CARSON CO    N/A     96  54  24 MISG        N/A
YUMA CO        FAIR      86  59  39 E7        29.94R
$$




USA.gov is the U.S. government's official web portal to all federal, state and local government web resources and services.